Flag for Hungary Weather past 2 weeks in Debrecen, Hungary

Now
46 °F

More clouds than sun.


Feels Like: 39 °F
Forecast: 38 / 47 °F
Wind: 17 mph from Southwest

Location: Debrecen Airport

Current Time: Mar 31, 2015 at 12:29:14 PM

Latest Report: Mar 31, 2015 at 11:45 AM


Visibility: N/A

Pressure: 29.74 "Hg

Humidity: 71%

Dew point: 37 °F

Location of DebrecenLocation

Historic Weather in Debrecen — Graph

°F

Debrecen temperature yesterday

Maximum temperature yesterday: 55 °F (at 2:45 PM)
Minimum temperature yesterday: 45 °F (at 4:45 AM)
Average temperature yesterday: 48 °F

Past Weeks' High & Low Weather Summary

 TemperatureHumidityPressure
High72 °F (Mar 27, 2:15 PM)94% (Mar 30, 4:48 PM)30.57 "Hg (Mar 30, 4:48 PM)
Low25 °F (Mar 21, 5:15 AM)21% (Mar 17, 3:45 PM)29.50 "Hg (Mar 30, 3:15 PM)
Average50 °F52%30.03 "Hg
* Reported Mar 16 10:15 AM — Mar 31 11:15 AM, Debrecen, Weather by CustomWeather, © 2015

Note: Actual official high and low records may vary slightly from our data, if they occured in-between our weather recording intervals... More about our weather records

Advertising

Debrecen weather history for previous 24 hours

 ConditionsComfort  
Time TempWeatherWind HumidityBarometerVisibility
11:15 AM
Tue, Mar 31
46 °FMore clouds than sun.20 mph62%29.74 "HgN/A
10:45 AM46 °FOvercast.15 mph66%29.74 "HgN/A
10:15 AM46 °FOvercast.13 mph66%29.77 "HgN/A
9:45 AM45 °FPartly sunny.10 mph71%29.77 "HgN/A
9:15 AM43 °FScattered clouds.13 mph76%29.80 "HgN/A
8:45 AM41 °FScattered clouds.9 mph81%29.80 "HgN/A
8:15 AM39 °FSunny.8 mph81%29.80 "Hg10 mi
7:45 AM36 °FSunny.5 mph93%29.80 "Hg10 mi
7:15 AM34 °FSunny.5 mph93%29.80 "Hg10 mi
6:45 AM34 °FClear.1 mph87%29.77 "Hg10 mi
6:15 AM34 °FClear.6 mph87%29.77 "Hg10 mi
5:45 AM34 °FClear.5 mph87%29.80 "Hg10 mi
5:15 AM34 °FClear.6 mph87%29.80 "Hg10 mi
4:45 AM36 °FClear.7 mph81%29.77 "Hg10 mi
8:45 PM
Mon, Mar 30
45 °FPassing clouds.1 mph76%29.62 "HgN/A
8:15 PM46 °FSprinkles. Mostly cloudy.13 mph76%29.62 "HgN/A
7:45 PM48 °FPartly sunny.9 mph87%29.59 "HgN/A
7:15 PM48 °FPartly sunny.12 mph87%29.56 "HgN/A
6:45 PM48 °FPartly sunny.13 mph87%29.56 "HgN/A
6:15 PM50 °FBroken clouds.13 mph82%29.56 "HgN/A
5:45 PM50 °FLight rain. Partly sunny.12 mph88%29.56 "HgN/A
5:15 PM48 °FLight rain. Partly sunny.12 mph94%29.56 "HgN/A
4:48 PM48 °FRain showers. Overcast.14 mph94%29.56 "Hg2 mi
4:15 PM52 °FRain. Overcast.16 mph77%29.53 "Hg4 mi
3:45 PM54 °FLight rain. Mostly cloudy.15 mph67%29.53 "Hg5 mi
3:15 PM55 °FMostly cloudy.17 mph59%29.50 "HgN/A
2:45 PM55 °FMostly cloudy.17 mph63%29.53 "HgN/A
2:15 PM54 °FMostly cloudy.16 mph63%29.53 "HgN/A
1:45 PM52 °FLight rain. Partly sunny.17 mph67%29.53 "HgN/A
1:15 PM50 °FLight rain. Partly sunny.17 mph76%29.53 "HgN/A
12:45 PM50 °FMostly cloudy.18 mph71%29.53 "HgN/A
12:15 PM50 °FMore clouds than sun.20 mph71%29.53 "HgN/A
Weather by CustomWeather, © 2015

See weather overviewHow to use our weather pages